K5NCO Weather Reports


Display with metric or nautical units.
time (UTC)temp
F
wind
direction
speed
MPH
gust
MPH
rain 1hr
in
rain 24hr
in
rain mn
in
humidity
%
barometer
mb
20260903165744 90 181 10.0 13.0 0.00 0.00 0.00 62 1015.7
20260903165239 90 188 8.0 10.0 0.00 0.00 0.00 62 1015.6
20260903164739 89 86 7.0 9.0 0.00 0.00 0.00 63 1015.7
20260903164235 89 199 8.0 10.0 0.00 0.00 0.00 65 1015.4
20260903163734 89 195 8.0 9.0 0.00 0.00 0.00 64 1015.6
20260903163231 89 144 6.0 8.0 0.00 0.00 0.00 65 1015.5
20260903162726 89 168 11.0 14.0 0.00 0.00 0.00 65 1015.6
20260903162222 90 138 6.0 8.0 0.00 0.00 0.00 64 1015.6
20260903161718 88 210 5.0 6.0 0.00 0.00 0.00 65 1015.5
20260903161213 88 165 8.0 10.0 0.00 0.00 0.00 66 1015.5
20260903160709 88 177 10.0 11.0 0.00 0.00 0.00 66 1015.4
20260903160202 88 193 11.0 13.0 0.00 0.00 0.00 66 1015.5
20260903155701 88 178 10.0 10.0 0.00 0.00 0.00 67 1015.5
20260903155156 88 211 7.0 9.0 0.00 0.00 0.00 67 1015.4
20260903154652 88 212 3.0 4.0 0.00 0.00 0.00 66 1015.5
20260903154148 87 230 8.0 10.0 0.00 0.00 0.00 69 1015.6
20260903153644 87 155 10.0 13.0 0.00 0.00 0.00 69 1015.5
20260903153139 86 217 8.0 10.0 0.00 0.00 0.00 70 1015.5
20260903152635 86 157 7.0 9.0 0.00 0.00 0.00 71 1015.4
20260903152131 86 201 6.0 9.0 0.00 0.00 0.00 70 1015.5
20260903151630 86 221 7.0 9.0 0.00 0.00 0.00 72 1015.3
20260903151125 86 146 4.0 6.0 0.00 0.00 0.00 73 1015.5
20260903150620 86 175 9.0 10.0 0.00 0.00 0.00 73 1015.3
20260903150115 86 176 9.0 11.0 0.00 0.00 0.00 71 1015.3
20260903145615 86 203 6.0 9.0 0.00 0.00 0.00 73 1015.4
20260903145110 85 199 8.0 10.0 0.00 0.00 0.00 75 1015.5
20260903144609 85 218 4.0 6.0 0.00 0.00 0.00 75 1015.7
20260903144105 85 214 5.0 7.0 0.00 0.00 0.00 76 1015.4
20260903143601 85 250 6.0 7.0 0.00 0.00 0.00 75 1015.4
20260903143056 85 204 11.0 14.0 0.00 0.00 0.00 76 1015.4
20260903142552 85 298 9.0 10.0 0.00 0.00 0.00 77 1015.3
20260903142049 84 145 4.0 6.0 0.00 0.00 0.00 78 1015.3
20260903141549 83 229 7.0 10.0 0.00 0.00 0.00 79 1015.4
20260903141044 83 195 3.0 6.0 0.00 0.00 0.00 80 1015.4
20260903140540 82 170 9.0 13.0 0.00 0.00 0.00 80 1015.5
20260903140035 82 183 8.0 11.0 0.00 0.00 0.00 81 1015.6
20260903135531 82 131 9.0 14.0 0.00 0.00 0.00 80 1015.3
20260903135031 83 171 14.0 19.0 0.00 0.00 0.00 80 1015.3
20260903134530 82 186 6.0 8.0 0.00 0.00 0.00 81 1015.3
20260903134026 82 198 6.0 8.0 0.00 0.00 0.00 83 1015.4
20260903133524 82 176 12.0 14.0 0.00 0.00 0.00 83 1015.4
20260903133019 81 174 11.0 14.0 0.00 0.00 0.00 84 1015.4
20260903132514 81 185 9.0 10.0 0.00 0.00 0.00 84 1015.4
20260903132009 81 215 8.0 10.0 0.00 0.00 0.00 84 1015.6
20260903131504 81 188 5.0 7.0 0.00 0.00 0.00 85 1015.4
20260903130957 81 181 6.0 7.0 0.00 0.00 0.00 85 1015.6
20260903130452 81 218 6.0 8.0 0.00 0.00 0.00 85 1015.6
20260903125950 81 152 3.0 6.0 0.00 0.00 0.00 85 1015.6
20260903125444 81 180 6.0 8.0 0.00 0.00 0.00 85 1015.4
20260903124939 81 183 6.0 9.0 0.00 0.00 0.00 85 1015.2
20260903124434 81 190 10.0 13.0 0.00 0.00 0.00 86 1015.3
20260903123933 81 181 9.0 10.0 0.00 0.00 0.00 86 1015.3
20260903123428 81 130 3.0 6.0 0.00 0.00 0.00 86 1015.3
20260903122926 81 192 4.0 6.0 0.00 0.00 0.00 86 1015.1
20260903122421 81 195 10.0 11.0 0.00 0.00 0.00 86 1015.2
20260903121920 81 178 7.0 9.0 0.00 0.00 0.00 86 1015.2
20260903121415 81 151 6.0 7.0 0.00 0.00 0.00 86 1015.0
20260903120911 81 189 7.0 8.0 0.00 0.00 0.00 86 1015.1
20260903120409 81 159 4.0 4.0 0.00 0.00 0.00 87 1015.1
20260903115908 81 185 9.0 11.0 0.00 0.00 0.00 87 1015.0
20260903115403 81 194 5.0 6.0 0.00 0.00 0.00 87 1014.9
20260903114858 81 181 8.0 11.0 0.00 0.00 0.00 87 1015.1
20260903114354 80 203 6.0 8.0 0.00 0.00 0.00 87 1015.0
20260903113849 81 179 6.0 7.0 0.00 0.00 0.00 87 1015.0
20260903113344 81 173 4.0 8.0 0.00 0.00 0.00 87 1015.0
20260903112840 81 180 6.0 7.0 0.00 0.00 0.00 87 1014.9
20260903112336 81 165 4.0 4.0 0.00 0.00 0.00 87 1015.1
20260903111834 81 153 9.0 11.0 0.00 0.00 0.00 86 1015.1
20260903111329 81 185 10.0 13.0 0.00 0.00 0.00 87 1015.0
20260903110826 81 179 10.0 14.0 0.00 0.00 0.00 87 1014.9
20260903110321 81 180 6.0 7.0 0.00 0.00 0.00 87 1014.8
20260903105820 80 131 8.0 9.0 0.00 0.00 0.00 87 1014.8
20260903105310 81 188 3.0 6.0 0.00 0.00 0.00 87 1014.8
20260903104809 80 153 8.0 10.0 0.00 0.00 0.00 87 1014.8
20260903104304 80 175 7.0 8.0 0.00 0.00 0.00 87 1014.8
20260903103801 80 181 8.0 10.0 0.00 0.00 0.00 87 1014.7
20260903103256 80 187 8.0 10.0 0.00 0.00 0.00 87 1014.5
20260903102751 80 173 8.0 10.0 0.00 0.00 0.00 87 1014.7
20260903102246 80 193 9.0 13.0 0.00 0.00 0.00 87 1014.6
20260903101744 80 186 6.0 8.0 0.00 0.00 0.00 87 1014.7
20260903101240 80 189 13.0 15.0 0.00 0.00 0.00 87 1014.5
20260903100736 80 219 4.0 6.0 0.00 0.00 0.00 87 1014.6
20260903100230 80 188 11.0 15.0 0.00 0.00 0.00 87 1014.7
20260903095727 80 167 6.0 7.0 0.00 0.00 0.00 87 1014.3
20260903095223 80 168 9.0 11.0 0.00 0.00 0.00 87 1014.6
20260903094718 80 178 5.0 8.0 0.00 0.00 0.00 86 1014.6
20260903094213 80 140 5.0 8.0 0.00 0.00 0.00 87 1014.7
20260903093708 80 132 5.0 6.0 0.00 0.00 0.00 86 1014.7
20260903093203 80 182 5.0 7.0 0.00 0.00 0.00 86 1014.8
20260903092657 81 179 10.0 13.0 0.00 0.00 0.00 86 1014.7
20260903092151 81 139 12.0 15.0 0.00 0.00 0.00 86 1015.0
20260903091650 81 140 5.0 6.0 0.00 0.00 0.00 86 1014.8
20260903091144 81 196 8.0 10.0 0.00 0.00 0.00 86 1015.0
20260903090640 81 182 8.0 10.0 0.00 0.00 0.00 85 1014.8
20260903090139 81 174 8.0 11.0 0.00 0.00 0.00 85 1014.9
20260903085638 81 175 9.0 13.0 0.00 0.00 0.00 85 1014.9
20260903085134 81 204 5.0 7.0 0.00 0.00 0.00 85 1015.0
20260903084631 81 206 6.0 7.0 0.00 0.00 0.00 85 1014.9
20260903084126 81 159 6.0 7.0 0.00 0.00 0.00 85 1014.8
20260903083621 81 212 6.0 8.0 0.00 0.00 0.00 85 1015.2
20260903083116 81 180 4.0 4.0 0.00 0.00 0.00 84 1015.0
20260903082610 81 182 9.0 11.0 0.00 0.00 0.00 85 1014.9
20260903082106 81 174 6.0 8.0 0.00 0.00 0.00 85 1015.0
20260903081601 81 198 10.0 13.0 0.00 0.00 0.00 85 1015.1
20260903081057 81 113 6.0 9.0 0.00 0.00 0.00 84 1014.9
20260903080553 81 177 9.0 11.0 0.00 0.00 0.00 84 1014.9
20260903080049 81 157 2.0 2.0 0.00 0.00 0.00 84 1015.0
20260903075544 81 121 2.0 4.0 0.00 0.00 0.00 84 1015.0
20260903075040 81 92 7.0 8.0 0.00 0.00 0.00 84 1014.9
20260903074538 81 140 6.0 9.0 0.00 0.00 0.00 84 1014.9
20260903074033 81 135 10.0 13.0 0.00 0.00 0.00 83 1014.9
20260903073529 81 158 7.0 10.0 0.00 0.00 0.00 83 1015.0
20260903073025 81 184 12.0 15.0 0.00 0.00 0.00 83 1015.1
20260903072520 81 218 3.0 4.0 0.00 0.00 0.00 82 1015.3
20260903072016 82 186 9.0 13.0 0.00 0.00 0.00 82 1015.1
20260903071512 82 193 7.0 9.0 0.00 0.00 0.00 81 1015.1
20260903071007 82 182 10.0 13.0 0.00 0.00 0.00 81 1015.1
20260903070507 82 143 9.0 10.0 0.00 0.00 0.00 80 1015.2
20260903070003 82 197 6.0 8.0 0.00 0.00 0.00 80 1015.2
20260903065457 81 143 5.0 7.0 0.00 0.00 0.00 79 1015.2
20260903064956 82 153 4.0 6.0 0.00 0.00 0.00 79 1015.2
20260903064450 82 128 9.0 9.0 0.00 0.00 0.00 79 1015.2
20260903063947 81 117 6.0 8.0 0.00 0.00 0.00 79 1015.2
20260903063442 81 142 3.0 3.0 0.00 0.00 0.00 79 1015.3
20260903062937 81 185 5.0 9.0 0.00 0.00 0.00 79 1015.3
20260903062436 81 158 2.0 2.0 0.00 0.00 0.00 80 1015.3
20260903061932 81 112 5.0 7.0 0.00 0.00 0.00 80 1015.3
20260903061432 81 141 4.0 4.0 0.00 0.00 0.00 80 1015.4
20260903060927 81 120 6.0 7.0 0.00 0.00 0.00 80 1015.4
20260903060422 81 160 2.0 3.0 0.00 0.00 0.00 81 1015.3
20260903055921 81 191 5.0 7.0 0.00 0.00 0.00 81 1015.4
20260903055419 81 124 4.0 4.0 0.00 0.00 0.00 81 1015.4
20260903054914 81 72 1.0 3.0 0.00 0.00 0.00 81 1015.5
20260903054414 81 149 7.0 9.0 0.00 0.00 0.00 81 1015.4
20260903053910 81 157 9.0 10.0 0.00 0.00 0.00 81 1015.1
20260903053410 81 106 3.0 4.0 0.00 0.00 0.00 81 1015.1
20260903052907 81 116 2.0 2.0 0.00 0.00 0.00 81 1015.3
20260903052402 81 130 5.0 7.0 0.00 0.00 0.00 81 1015.4
20260903051857 80 115 2.0 2.0 0.00 0.00 0.00 81 1015.1
20260903051352 80 135 1.0 1.0 0.00 0.00 0.00 81 1015.4
20260903050848 80 105 3.0 4.0 0.00 0.00 0.00 81 1015.5
20260903050347 80 83 4.0 4.0 0.00 0.00 0.00 81 1015.3
20260903045842 80 168 2.0 3.0 0.00 0.00 0.00 81 1015.3
20260903045338 80 116 6.0 7.0 0.00 0.00 0.00 81 1015.2
20260903044834 80 93 2.0 4.0 0.00 0.00 0.00 81 1015.3
20260903044329 80 132 3.0 3.0 0.00 0.00 0.00 81 1015.1
20260903043825 80 129 4.0 6.0 0.00 0.00 0.00 81 1015.1
20260903043320 80 92 6.0 8.0 0.00 0.00 0.00 81 1015.2
20260903042819 80 143 3.0 3.0 0.00 0.00 0.00 80 1015.2
20260903042315 80 79 4.0 7.0 0.00 0.00 0.00 80 1015.2
20260903041811 81 143 5.0 7.0 0.00 0.00 0.00 80 1015.2
20260903041307 81 105 3.0 4.0 0.00 0.00 0.00 79 1015.3
20260903040807 81 96 5.0 6.0 0.00 0.00 0.00 79 1015.2
20260903040306 81 94 2.0 3.0 0.00 0.00 0.00 78 1015.3
20260903035803 81 21 1.0 2.0 0.00 0.00 0.00 77 1015.0
20260903035257 82 99 7.0 8.0 0.00 0.00 0.00 76 1015.2
20260903034753 82 96 6.0 8.0 0.00 0.00 0.00 76 1015.2
20260903034248 82 107 8.0 10.0 0.00 0.00 0.00 74 1015.3
20260903033743 82 76 6.0 9.0 0.00 0.00 0.00 74 1015.3
20260903033238 83 76 5.0 8.0 0.00 0.00 0.00 72 1015.5
20260903032732 84 76 3.0 6.0 0.00 0.00 0.00 67 1015.4
20260903032228 85 88 5.0 6.0 0.00 0.00 0.00 66 1015.2
20260903031723 85 81 12.0 14.0 0.00 0.00 0.00 66 1015.1
20260903031217 85 101 7.0 10.0 0.00 0.00 0.00 65 1015.0
20260903030714 86 96 2.0 3.0 0.00 0.00 0.00 64 1015.0
20260903030209 86 90 6.0 8.0 0.00 0.00 0.00 62 1014.8
20260903025704 86 85 6.0 8.0 0.00 0.00 0.00 62 1014.5
20260903025200 87 53 5.0 9.0 0.00 0.00 0.00 60 1014.7
20260903024654 87 77 8.0 9.0 0.00 0.00 0.00 58 1014.4
20260903024153 88 81 5.0 7.0 0.00 0.00 0.00 58 1014.1
20260903023649 88 58 6.0 7.0 0.00 0.00 0.00 57 1014.1
20260903023143 88 78 1.0 1.0 0.00 0.00 0.00 57 1013.9
20260903022638 88 73 5.0 6.0 0.00 0.00 0.00 56 1013.6
20260903022137 89 128 3.0 3.0 0.00 0.00 0.00 56 1013.8
20260903021637 88 96 2.0 2.0 0.00 0.00 0.00 56 1013.7
20260903021132 88 39 1.0 1.0 0.00 0.00 0.00 57 1013.6
20260903020627 89 26 1.0 1.0 0.00 0.00 0.00 56 1013.5
20260903020121 89 32 1.0 2.0 0.00 0.00 0.00 56 1013.2
20260903015618 89 84 1.0 2.0 0.00 0.00 0.00 55 1012.9
20260903015112 89 85 1.0 2.0 0.00 0.00 0.00 55 1013.1
20260903014606 89 87 5.0 6.0 0.00 0.00 0.00 55 1013.1
20260903014101 89 111 5.0 6.0 0.00 0.00 0.00 55 1013.1
20260903013601 90 43 2.0 2.0 0.00 0.00 0.00 55 1012.9
20260903013055 90 46 3.0 6.0 0.00 0.00 0.00 55 1012.9
20260903012554 90 114 4.0 6.0 0.00 0.00 0.00 55 1013.0
20260903012049 90 103 2.0 3.0 0.00 0.00 0.00 55 1012.9
20260903011548 90 85 1.0 2.0 0.00 0.00 0.00 54 1013.1
20260903011038 90 100 4.0 4.0 0.00 0.00 0.00 54 1013.0
20260903010533 90 86 5.0 7.0 0.00 0.00 0.00 53 1013.0
20260903010032 91 103 4.0 4.0 0.00 0.00 0.00 52 1012.9
20260903005532 91 74 3.0 4.0 0.00 0.00 0.00 51 1012.9
20260903005027 92 115 5.0 8.0 0.00 0.00 0.00 50 1013.0
20260903004526 92 140 6.0 7.0 0.00 0.00 0.00 49 1012.9
20260903004022 92 126 6.0 6.0 0.00 0.00 0.00 48 1012.9
20260903003517 92 83 4.0 6.0 0.00 0.00 0.00 49 1013.1
20260903003013 92 148 1.0 1.0 0.00 0.00 0.00 50 1012.9
20260903002512 92 125 1.0 2.0 0.00 0.00 0.00 50 1013.1
20260903002008 91 124 3.0 4.0 0.00 0.00 0.00 51 1013.0
20260903001502 91 115 4.0 4.0 0.00 0.00 0.00 51 1012.9
20260903001002 92 150 4.0 4.0 0.00 0.00 0.00 51 1013.0
20260903000457 91 182 4.0 8.0 0.00 0.00 0.00 50 1013.0
20260902235955 91 199 2.0 2.0 0.00 0.00 0.00 51 1013.1
20260902235450 91 170 9.0 10.0 0.00 0.00 0.00 51 1013.2
20260902234945 92 153 11.0 14.0 0.00 0.00 0.00 51 1013.0
20260902234440 93 148 6.0 7.0 0.00 0.00 0.00 50 1013.0
20260902233938 95 298 0.0 1.0 0.00 0.00 0.00 45 1013.1
20260902233432 95 331 4.0 4.0 0.00 0.00 0.00 46 1012.9
20260902232932 95 325 0.0 1.0 0.00 0.00 0.00 47 1012.9
20260902232427 95 312 1.0 2.0 0.00 0.00 0.00 47 1013.0
20260902231921 95 0 0.0 0.0 0.00 0.00 0.00 47 1012.7
20260902231416 94 8 0.0 1.0 0.00 0.00 0.00 47 1012.9
20260902230910 94 10 2.0 2.0 0.00 0.00 0.00 47 1012.8
20260902230410 95 13 0.0 0.0 0.00 0.00 0.00 47 1012.6
20260902225904 94 13 0.0 1.0 0.00 0.00 0.00 47 1012.8
20260902225359 95 13 2.0 7.0 0.00 0.00 0.00 45 1012.9
20260902224858 98 18 4.0 7.0 0.00 0.00 0.00 42 1012.6
20260902224358 98 81 0.0 0.0 0.00 0.00 0.00 40 1012.5
20260902223855 99 264 0.0 0.0 0.00 0.00 0.00 39 1012.5
20260902223349 98 340 0.0 0.0 0.00 0.00 0.00 40 1012.5
20260902222844 98 305 0.0 0.0 0.00 0.00 0.00 40 1012.6
20260902222342 98 202 0.0 0.0 0.00 0.00 0.00 40 1012.7
20260902221837 98 196 0.0 0.0 0.00 0.00 0.00 40 1012.5
20260902221336 98 185 3.0 4.0 0.00 0.00 0.00 41 1012.7
20260902220832 98 179 0.0 0.0 0.00 0.00 0.00 41 1012.4
20260902220331 97 169 0.0 0.0 0.00 0.00 0.00 41 1012.6
20260902215826 97 130 3.0 4.0 0.00 0.00 0.00 41 1012.6
20260902215321 98 142 3.0 6.0 0.00 0.00 0.00 41 1012.7
20260902214817 97 164 6.0 7.0 0.00 0.00 0.00 41 1012.8
20260902214316 97 108 4.0 7.0 0.00 0.00 0.00 41 1012.9
20260902213811 98 141 1.0 3.0 0.00 0.00 0.00 41 1012.9
20260902213307 98 221 0.0 1.0 0.00 0.00 0.00 40 1012.9
20260902212805 98 171 2.0 2.0 0.00 0.00 0.00 40 1013.0
20260902212305 98 140 0.0 0.0 0.00 0.00 0.00 40 1012.9
20260902211758 98 14 0.0 0.0 0.00 0.00 0.00 40 1012.9
20260902211254 98 323 0.0 0.0 0.00 0.00 0.00 41 1013.1
20260902210754 98 315 2.0 2.0 0.00 0.00 0.00 40 1013.0
20260902210249 98 316 1.0 2.0 0.00 0.00 0.00 39 1013.0
20260902205747 99 218 0.0 1.0 0.00 0.00 0.00 39 1013.4
20260902205242 99 236 2.0 4.0 0.00 0.00 0.00 40 1013.4
20260902204737 99 176 2.0 2.0 0.00 0.00 0.00 40 1013.4
20260902204232 98 318 1.0 4.0 0.00 0.00 0.00 40 1013.2
20260902203727 99 252 5.0 7.0 0.00 0.00 0.00 40 1013.4
20260902203222 99 120 3.0 4.0 0.00 0.00 0.00 40 1013.6
20260902202716 99 249 4.0 7.0 0.00 0.00 0.00 39 1013.8
20260902202213 100 203 2.0 6.0 0.00 0.00 0.00 39 1013.8
20260902201709 100 260 2.0 3.0 0.00 0.00 0.00 39 1013.7
20260902201208 100 338 6.0 8.0 0.00 0.00 0.00 39 1013.9
20260902200703 99 30 0.0 0.0 0.00 0.00 0.00 40 1014.0
20260902200159 98 71 3.0 4.0 0.00 0.00 0.00 41 1014.0
20260902195649 98 333 6.0 8.0 0.00 0.00 0.00 41 1014.1
20260902195148 97 329 4.0 4.0 0.00 0.00 0.00 42 1014.2
20260902194647 96 342 2.0 2.0 0.00 0.00 0.00 43 1014.4
20260902194142 97 302 2.0 2.0 0.00 0.00 0.00 43 1014.3
20260902193638 98 331 4.0 6.0 0.00 0.00 0.00 42 1014.5
20260902193133 98 322 0.0 0.0 0.00 0.00 0.00 42 1014.4
20260902192631 97 220 0.0 1.0 0.00 0.00 0.00 42 1014.5
20260902192131 97 3 4.0 6.0 0.00 0.00 0.00 41 1014.7
20260902191625 98 312 2.0 3.0 0.00 0.00 0.00 42 1014.8
20260902191120 97 255 0.0 0.0 0.00 0.00 0.00 42 1015.0
20260902190616 96 226 2.0 2.0 0.00 0.00 0.00 43 1014.9
20260902190110 98 231 5.0 6.0 0.00 0.00 0.00 42 1015.1
20260902185606 97 139 3.0 3.0 0.00 0.00 0.00 43 1015.0
20260902185102 97 228 3.0 3.0 0.00 0.00 0.00 42 1015.4
20260902184557 98 177 5.0 6.0 0.00 0.00 0.00 43 1015.3
20260902184052 98 173 1.0 2.0 0.00 0.00 0.00 41 1015.4
20260902183548 98 212 4.0 4.0 0.00 0.00 0.00 40 1015.5
20260902183045 96 291 4.0 6.0 0.00 0.00 0.00 43 1015.6
20260902182540 97 245 3.0 4.0 0.00 0.00 0.00 43 1015.8
20260902182037 95 109 0.0 0.0 0.00 0.00 0.00 44 1015.8
20260902181533 96 99 0.0 0.0 0.00 0.00 0.00 44 1015.9
20260902181026 96 264 4.0 6.0 0.00 0.00 0.00 45 1016.2
20260902180520 96 246 5.0 6.0 0.00 0.00 0.00 44 1016.0
20260902180016 96 147 0.0 2.0 0.00 0.00 0.00 44 1016.1
20260902175510 95 124 0.0 1.0 0.00 0.00 0.00 46 1016.4
20260902175007 96 175 6.0 7.0 0.00 0.00 0.00 44 1016.5
20260902174503 94 330 2.0 2.0 0.00 0.00 0.00 46 1016.5
20260902173958 94 140 4.0 4.0 0.00 0.00 0.00 46 1016.5
20260902173458 95 168 6.0 6.0 0.00 0.00 0.00 46 1016.6
20260902172953 95 222 1.0 2.0 0.00 0.00 0.00 45 1016.8
20260902172452 95 217 4.0 6.0 0.00 0.00 0.00 46 1016.7
20260902171948 95 221 6.0 7.0 0.00 0.00 0.00 45 1016.9
20260902171443 95 241 2.0 2.0 0.00 0.00 0.00 48 1017.0
20260902170939 94 187 7.0 8.0 0.00 0.00 0.00 48 1017.0
20260902170434 94 213 5.0 6.0 0.00 0.00 0.00 48 1017.0
20260902165930 93 272 5.0 6.0 0.00 0.00 0.00 48 1017.1